Time,TemperatureF,DewpointF,PressureIn,WindDirection,WindDirectionDegrees,WindSpeedMPH,WindSpeedGustMPH,Humidity,HourlyPrecipIn,Conditions,Clouds,dailyrainin,SoftwareType,DateUTC
2013-01-22 00:05:00,-7.0,-99.9,-100.00,WNW,298,25.0,30.0,-999,-99.99,,,-99.99,,2013-01-22 05:05:00,
2013-01-22 00:12:00,-7.0,-99.9,-100.00,WNW,298,25.0,30.0,-999,-99.99,,,-99.99,,2013-01-22 05:12:00,
2013-01-22 00:23:00,-7.0,-99.9,-100.00,WNW,298,25.0,30.0,-999,-99.99,,,-99.99,,2013-01-22 05:23:00,
2013-01-22 00:33:00,-7.0,-99.9,-100.00,WNW,298,25.0,30.0,-999,-99.99,,,-99.99,,2013-01-22 05:33:00,
2013-01-22 00:43:00,-7.0,-99.9,-100.00,WNW,298,25.0,30.0,-999,-99.99,,,-99.99,,2013-01-22 05:43:00,
2013-01-22 00:53:00,-7.0,-99.9,-100.00,WNW,298,25.0,30.0,-999,-99.99,,,-99.99,,2013-01-22 05:53:00,
2013-01-22 01:02:00,-7.0,-99.9,-100.00,WNW,299,22.0,29.0,-999,-99.99,,,-99.99,,2013-01-22 06:02:00,
2013-01-22 01:12:00,-7.0,-99.9,-100.00,WNW,299,22.0,29.0,-999,-99.99,,,-99.99,,2013-01-22 06:12:00,
2013-01-22 01:22:00,-7.0,-99.9,-100.00,WNW,299,22.0,29.0,-999,-99.99,,,-99.99,,2013-01-22 06:22:00,
2013-01-22 01:33:00,-6.0,-99.9,-100.00,WNW,299,23.0,0.0,-999,-99.99,,,-99.99,,2013-01-22 06:33:00,
2013-01-22 01:40:00,-7.0,-99.9,-100.00,WNW,301,20.0,27.0,-999,-99.99,,,-99.99,,2013-01-22 06:40:00,
2013-01-22 01:43:00,-6.0,-99.9,-100.00,WNW,299,23.0,0.0,-999,-99.99,,,-99.99,,2013-01-22 06:43:00,
2013-01-22 01:53:00,-6.0,-99.9,-100.00,WNW,299,23.0,0.0,-999,-99.99,,,-99.99,,2013-01-22 06:53:00,
2013-01-22 02:03:00,-7.0,-99.9,-100.00,WNW,301,20.0,27.0,-999,-99.99,,,-99.99,,2013-01-22 07:03:00,
2013-01-22 02:12:00,-7.0,-99.9,-100.00,WNW,301,20.0,27.0,-999,-99.99,,,-99.99,,2013-01-22 07:12:00,
2013-01-22 02:22:00,-7.0,-99.9,-100.00,WNW,301,20.0,27.0,-999,-99.99,,,-99.99,,2013-01-22 07:22:00,
2013-01-22 02:33:00,-7.0,-99.9,-100.00,WNW,301,20.0,27.0,-999,-99.99,,,-99.99,,2013-01-22 07:33:00,
2013-01-22 03:02:00,-6.0,-99.9,-100.00,WNW,300,21.0,26.0,-999,-99.99,,,-99.99,,2013-01-22 08:02:00,
2013-01-22 03:12:00,-6.0,-99.9,-100.00,WNW,300,21.0,26.0,-999,-99.99,,,-99.99,,2013-01-22 08:12:00,
2013-01-22 03:23:00,-6.0,-99.9,-100.00,WNW,300,21.0,26.0,-999,-99.99,,,-99.99,,2013-01-22 08:23:00,
2013-01-22 03:33:00,-6.0,-99.9,-100.00,WNW,300,23.0,29.0,-999,-99.99,,,-99.99,,2013-01-22 08:33:00,
2013-01-22 03:43:00,-6.0,-99.9,-100.00,WNW,300,23.0,29.0,-999,-99.99,,,-99.99,,2013-01-22 08:43:00,
2013-01-22 03:53:00,-6.0,-99.9,-100.00,WNW,301,25.0,0.0,-999,-99.99,,,-99.99,,2013-01-22 08:53:00,
2013-01-22 04:02:00,-5.0,-99.9,-100.00,WNW,295,26.0,29.0,-999,-99.99,,,-99.99,,2013-01-22 09:02:00,
2013-01-22 04:12:00,-5.0,-99.9,-100.00,WNW,295,26.0,29.0,-999,-99.99,,,-99.99,,2013-01-22 09:12:00,
2013-01-22 04:23:00,-5.0,-99.9,-100.00,WNW,295,26.0,29.0,-999,-99.99,,,-99.99,,2013-01-22 09:23:00,
2013-01-22 04:33:00,-5.0,-99.9,-100.00,WNW,295,26.0,29.0,-999,-99.99,,,-99.99,,2013-01-22 09:33:00,
2013-01-22 04:43:00,-6.0,-99.9,-100.00,WNW,302,21.0,30.0,-999,-99.99,,,-99.99,,2013-01-22 09:43:00,
2013-01-22 04:53:00,-6.0,-99.9,-100.00,WNW,302,21.0,30.0,-999,-99.99,,,-99.99,,2013-01-22 09:53:00,
2013-01-22 05:03:00,-6.0,-99.9,-100.00,WNW,296,24.0,27.0,-999,-99.99,,,-99.99,,2013-01-22 10:03:00,
2013-01-22 05:12:00,-6.0,-99.9,-100.00,WNW,296,24.0,27.0,-999,-99.99,,,-99.99,,2013-01-22 10:12:00,
2013-01-22 05:22:00,-5.0,-99.9,-100.00,WNW,294,24.0,0.0,-999,-99.99,,,-99.99,,2013-01-22 10:22:00,
2013-01-22 05:33:00,-5.0,-99.9,-100.00,WNW,294,24.0,0.0,-999,-99.99,,,-99.99,,2013-01-22 10:33:00,
2013-01-22 05:43:00,-5.0,-99.9,-100.00,WNW,296,25.0,29.0,-999,-99.99,,,-99.99,,2013-01-22 10:43:00,
2013-01-22 05:53:00,-5.0,-99.9,-100.00,WNW,296,25.0,29.0,-999,-99.99,,,-99.99,,2013-01-22 10:53:00,
2013-01-22 06:03:00,-5.0,-99.9,-100.00,WNW,295,25.0,30.0,-999,-99.99,,,-99.99,,2013-01-22 11:03:00,
2013-01-22 06:12:00,-5.0,-99.9,-100.00,WNW,295,25.0,30.0,-999,-99.99,,,-99.99,,2013-01-22 11:12:00,
2013-01-22 06:23:00,-5.0,-99.9,-100.00,WNW,296,25.0,29.0,-999,-99.99,,,-99.99,,2013-01-22 11:23:00,
2013-01-22 06:33:00,-5.0,-99.9,-100.00,WNW,296,25.0,29.0,-999,-99.99,,,-99.99,,2013-01-22 11:33:00,
2013-01-22 06:43:00,-5.0,-99.9,-100.00,WNW,296,25.0,29.0,-999,-99.99,,,-99.99,,2013-01-22 11:43:00,
2013-01-22 06:54:00,-5.0,-99.9,-100.00,WNW,296,25.0,29.0,-999,-99.99,,,-99.99,,2013-01-22 11:54:00,
2013-01-22 07:04:00,-7.0,-99.9,-100.00,WNW,301,18.0,22.0,-999,-99.99,,,-99.99,,2013-01-22 12:04:00,
2013-01-22 07:13:00,-7.0,-99.9,-100.00,WNW,301,18.0,22.0,-999,-99.99,,,-99.99,,2013-01-22 12:13:00,
2013-01-22 07:23:00,-7.0,-99.9,-100.00,WNW,301,18.0,22.0,-999,-99.99,,,-99.99,,2013-01-22 12:23:00,
2013-01-22 07:33:00,-7.0,-99.9,-100.00,WNW,301,18.0,22.0,-999,-99.99,,,-99.99,,2013-01-22 12:33:00,
2013-01-22 07:43:00,-4.0,-99.9,-100.00,WNW,292,23.0,29.0,-999,-99.99,,,-99.99,,2013-01-22 12:43:00,
2013-01-22 07:53:00,-4.0,-99.9,-100.00,WNW,292,23.0,29.0,-999,-99.99,,,-99.99,,2013-01-22 12:53:00,
2013-01-22 08:04:00,-6.0,-99.9,-100.00,WNW,297,16.0,25.0,-999,-99.99,,,-99.99,,2013-01-22 13:04:00,
2013-01-22 08:14:00,-6.0,-99.9,-100.00,WNW,297,16.0,25.0,-999,-99.99,,,-99.99,,2013-01-22 13:14:00,
2013-01-22 08:24:00,-4.0,-99.9,-100.00,WNW,292,23.0,29.0,-999,-99.99,,,-99.99,,2013-01-22 13:24:00,
2013-01-22 08:34:00,-4.0,-99.9,-100.00,WNW,292,23.0,29.0,-999,-99.99,,,-99.99,,2013-01-22 13:34:00,
2013-01-22 08:40:00,-7.0,-99.9,-100.00,WNW,299,21.0,24.0,-999,-99.99,,,-99.99,,2013-01-22 13:40:00,
2013-01-22 08:43:00,-4.0,-99.9,-100.00,WNW,292,23.0,29.0,-999,-99.99,,,-99.99,,2013-01-22 13:43:00,
2013-01-22 08:54:00,-4.0,-99.9,-100.00,WNW,292,23.0,29.0,-999,-99.99,,,-99.99,,2013-01-22 13:54:00,
2013-01-22 09:03:00,-7.0,-99.9,-100.00,WNW,299,21.0,24.0,-999,-99.99,,,-99.99,,2013-01-22 14:03:00,
2013-01-22 09:13:00,-7.0,-99.9,-100.00,WNW,299,21.0,24.0,-999,-99.99,,,-99.99,,2013-01-22 14:13:00,
2013-01-22 09:23:00,-7.0,-99.9,-100.00,WNW,299,21.0,24.0,-999,-99.99,,,-99.99,,2013-01-22 14:23:00,
2013-01-22 09:34:00,-7.0,-99.9,-100.00,WNW,299,21.0,24.0,-999,-99.99,,,-99.99,,2013-01-22 14:34:00,
2013-01-22 09:40:00,-7.0,-99.9,-100.00,WNW,300,18.0,22.0,-999,-99.99,,,-99.99,,2013-01-22 14:40:00,
2013-01-22 10:04:00,-7.0,-99.9,-100.00,WNW,300,18.0,22.0,-999,-99.99,,,-99.99,,2013-01-22 15:04:00,
2013-01-22 10:13:00,-7.0,-99.9,-100.00,WNW,300,18.0,22.0,-999,-99.99,,,-99.99,,2013-01-22 15:13:00,
2013-01-22 10:24:00,-7.0,-99.9,-100.00,WNW,300,18.0,22.0,-999,-99.99,,,-99.99,,2013-01-22 15:24:00,
2013-01-22 10:34:00,-7.0,-99.9,-100.00,WNW,300,18.0,22.0,-999,-99.99,,,-99.99,,2013-01-22 15:34:00,
2013-01-22 10:40:00,-5.0,-99.9,-100.00,WNW,293,17.0,20.0,-999,-99.99,,,-99.99,,2013-01-22 15:40:00,
2013-01-22 11:04:00,-5.0,-99.9,-100.00,WNW,293,17.0,20.0,-999,-99.99,,,-99.99,,2013-01-22 16:04:00,
2013-01-22 11:14:00,-5.0,-99.9,-100.00,WNW,293,17.0,20.0,-999,-99.99,,,-99.99,,2013-01-22 16:14:00,
2013-01-22 11:24:00,-5.0,-99.9,-100.00,WNW,293,17.0,20.0,-999,-99.99,,,-99.99,,2013-01-22 16:24:00,
2013-01-22 11:34:00,-5.0,-99.9,-100.00,WNW,293,17.0,20.0,-999,-99.99,,,-99.99,,2013-01-22 16:34:00,
2013-01-22 11:40:00,-3.0,-99.9,-100.00,WNW,292,16.0,19.0,-999,-99.99,,,-99.99,,2013-01-22 16:40:00,
2013-01-22 12:13:00,-3.0,-99.9,-100.00,WNW,292,16.0,19.0,-999,-99.99,,,-99.99,,2013-01-22 17:13:00,
2013-01-22 12:24:00,-3.0,-99.9,-100.00,WNW,292,16.0,19.0,-999,-99.99,,,-99.99,,2013-01-22 17:24:00,
2013-01-22 12:35:00,-3.0,-99.9,-100.00,WNW,292,16.0,19.0,-999,-99.99,,,-99.99,,2013-01-22 17:35:00,
2013-01-22 13:40:00,1.0,-99.9,-100.00,WNW,298,16.0,19.0,-999,-99.99,,,-99.99,,2013-01-22 18:40:00,
2013-01-22 14:04:00,1.0,-99.9,-100.00,WNW,298,16.0,19.0,-999,-99.99,,,-99.99,,2013-01-22 19:04:00,
2013-01-22 14:14:00,1.0,-99.9,-100.00,WNW,298,16.0,19.0,-999,-99.99,,,-99.99,,2013-01-22 19:14:00,
2013-01-22 14:24:00,1.0,-99.9,-100.00,WNW,298,16.0,19.0,-999,-99.99,,,-99.99,,2013-01-22 19:24:00,
2013-01-22 14:34:00,1.0,-99.9,-100.00,WNW,298,16.0,19.0,-999,-99.99,,,-99.99,,2013-01-22 19:34:00,
2013-01-22 14:40:00,2.0,-99.9,-100.00,WNW,293,15.0,20.0,-999,-99.99,,,-99.99,,2013-01-22 19:40:00,
2013-01-22 15:04:00,2.0,-99.9,-100.00,WNW,293,15.0,20.0,-999,-99.99,,,-99.99,,2013-01-22 20:04:00,
2013-01-22 15:13:00,2.0,-99.9,-100.00,WNW,293,15.0,20.0,-999,-99.99,,,-99.99,,2013-01-22 20:13:00,
2013-01-22 15:23:00,2.0,-99.9,-100.00,WNW,293,15.0,20.0,-999,-99.99,,,-99.99,,2013-01-22 20:23:00,
2013-01-22 15:34:00,2.0,-99.9,-100.00,WNW,293,15.0,20.0,-999,-99.99,,,-99.99,,2013-01-22 20:34:00,
2013-01-22 15:40:00,3.0,-99.9,-100.00,WNW,300,14.0,16.0,-999,-99.99,,,-99.99,,2013-01-22 20:40:00,
2013-01-22 16:04:00,3.0,-99.9,-100.00,WNW,300,14.0,16.0,-999,-99.99,,,-99.99,,2013-01-22 21:04:00,
2013-01-22 16:14:00,3.0,-99.9,-100.00,WNW,300,14.0,16.0,-999,-99.99,,,-99.99,,2013-01-22 21:14:00,
2013-01-22 16:23:00,3.0,-99.9,-100.00,WNW,300,14.0,16.0,-999,-99.99,,,-99.99,,2013-01-22 21:23:00,
2013-01-22 16:34:00,3.0,-99.9,-100.00,WNW,300,14.0,16.0,-999,-99.99,,,-99.99,,2013-01-22 21:34:00,
2013-01-22 16:40:00,3.0,-99.9,-100.00,WNW,292,12.0,16.0,-999,-99.99,,,-99.99,,2013-01-22 21:40:00,
2013-01-22 17:03:00,3.0,-99.9,-100.00,WNW,292,12.0,16.0,-999,-99.99,,,-99.99,,2013-01-22 22:03:00,
2013-01-22 17:13:00,3.0,-99.9,-100.00,WNW,292,12.0,16.0,-999,-99.99,,,-99.99,,2013-01-22 22:13:00,
2013-01-22 17:23:00,3.0,-99.9,-100.00,WNW,292,12.0,16.0,-999,-99.99,,,-99.99,,2013-01-22 22:23:00,
2013-01-22 17:33:00,3.0,-99.9,-100.00,WNW,292,12.0,16.0,-999,-99.99,,,-99.99,,2013-01-22 22:33:00,
2013-01-22 17:40:00,2.0,-99.9,-100.00,WNW,299,13.0,16.0,-999,-99.99,,,-99.99,,2013-01-22 22:40:00,
2013-01-22 18:03:00,2.0,-99.9,-100.00,WNW,299,13.0,16.0,-999,-99.99,,,-99.99,,2013-01-22 23:03:00,
2013-01-22 18:13:00,2.0,-99.9,-100.00,WNW,299,13.0,16.0,-999,-99.99,,,-99.99,,2013-01-22 23:13:00,
2013-01-22 18:24:00,2.0,-99.9,-100.00,WNW,299,13.0,16.0,-999,-99.99,,,-99.99,,2013-01-22 23:24:00,
2013-01-22 18:34:00,2.0,-99.9,-100.00,WNW,299,13.0,16.0,-999,-99.99,,,-99.99,,2013-01-22 23:34:00,
2013-01-22 18:40:00,3.0,-99.9,-100.00,WNW,296,15.0,17.0,-999,-99.99,,,-99.99,,2013-01-22 23:40:00,
2013-01-22 19:03:00,3.0,-99.9,-100.00,WNW,296,15.0,17.0,-999,-99.99,,,-99.99,,2013-01-23 00:03:00,
2013-01-22 19:13:00,3.0,-99.9,-100.00,WNW,296,15.0,17.0,-999,-99.99,,,-99.99,,2013-01-23 00:13:00,
2013-01-22 19:23:00,3.0,-99.9,-100.00,WNW,296,15.0,17.0,-999,-99.99,,,-99.99,,2013-01-23 00:23:00,
2013-01-22 19:33:00,3.0,-99.9,-100.00,WNW,296,15.0,17.0,-999,-99.99,,,-99.99,,2013-01-23 00:33:00,
2013-01-22 19:40:00,3.0,-99.9,-100.00,WNW,297,17.0,20.0,-999,-99.99,,,-99.99,,2013-01-23 00:40:00,
2013-01-22 20:03:00,3.0,-99.9,-100.00,WNW,297,17.0,20.0,-999,-99.99,,,-99.99,,2013-01-23 01:03:00,
2013-01-22 20:13:00,3.0,-99.9,-100.00,WNW,297,17.0,20.0,-999,-99.99,,,-99.99,,2013-01-23 01:13:00,
2013-01-22 20:23:00,3.0,-99.9,-100.00,WNW,297,17.0,20.0,-999,-99.99,,,-99.99,,2013-01-23 01:23:00,
2013-01-22 20:33:00,3.0,-99.9,-100.00,WNW,297,17.0,20.0,-999,-99.99,,,-99.99,,2013-01-23 01:33:00,
2013-01-22 20:40:00,3.0,-99.9,-100.00,WNW,296,12.0,16.0,-999,-99.99,,,-99.99,,2013-01-23 01:40:00,
2013-01-22 21:04:00,3.0,-99.9,-100.00,WNW,296,12.0,16.0,-999,-99.99,,,-99.99,,2013-01-23 02:04:00,
2013-01-22 21:13:00,3.0,-99.9,-100.00,WNW,296,12.0,16.0,-999,-99.99,,,-99.99,,2013-01-23 02:13:00,
2013-01-22 21:23:00,3.0,-99.9,-100.00,WNW,296,12.0,16.0,-999,-99.99,,,-99.99,,2013-01-23 02:23:00,
2013-01-22 21:33:00,3.0,-99.9,-100.00,WNW,296,12.0,16.0,-999,-99.99,,,-99.99,,2013-01-23 02:33:00,
2013-01-22 21:40:00,3.0,-99.9,-100.00,West,281,12.0,15.0,-999,-99.99,,,-99.99,,2013-01-23 02:40:00,
2013-01-22 22:04:00,3.0,-99.9,-100.00,West,281,12.0,15.0,-999,-99.99,,,-99.99,,2013-01-23 03:04:00,
2013-01-22 22:13:00,3.0,-99.9,-100.00,West,281,12.0,15.0,-999,-99.99,,,-99.99,,2013-01-23 03:13:00,
2013-01-22 22:23:00,3.0,-99.9,-100.00,West,281,12.0,15.0,-999,-99.99,,,-99.99,,2013-01-23 03:23:00,
2013-01-22 22:33:00,3.0,-99.9,-100.00,West,281,12.0,15.0,-999,-99.99,,,-99.99,,2013-01-23 03:33:00,
2013-01-22 22:40:00,4.0,-99.9,-100.00,WSW,258,15.0,17.0,-999,-99.99,,,-99.99,,2013-01-23 03:40:00,
2013-01-22 23:04:00,4.0,-99.9,-100.00,WSW,258,15.0,17.0,-999,-99.99,,,-99.99,,2013-01-23 04:04:00,
2013-01-22 23:13:00,4.0,-99.9,-100.00,WSW,258,15.0,17.0,-999,-99.99,,,-99.99,,2013-01-23 04:13:00,
2013-01-22 23:23:00,4.0,-99.9,-100.00,WSW,258,15.0,17.0,-999,-99.99,,,-99.99,,2013-01-23 04:23:00,
2013-01-22 23:33:00,4.0,-99.9,-100.00,WSW,258,15.0,17.0,-999,-99.99,,,-99.99,,2013-01-23 04:33:00,
2013-01-22 23:40:00,4.0,-99.9,-100.00,West,262,14.0,20.0,-999,-99.99,,,-99.99,,2013-01-23 04:40:00,